This demonstration page uses our WeatherBlox Daily Observations layout. Learn more.

38.89511, -77.03637

Hourly Observations for January 31, 2018

Temp ( °F °C ) Dew Point ( °F °C ) Humidity (%) Winds ( mph kmh ) Pressure ( in mb ) Visibility ( mi km ) Precip ( " mm )
12:52 am 00:52 Clear 23 -5 5 -15 46 46 NW 12 19 30.33 1027 10 16.0934 0 0
1:52 am 01:52 Clear 22 -5.6 6 -14.4 50 50 NW 8 13 30.35 1028 10 16.0934 0 0
3:52 am 03:52 Mostly Cloudy 22 -5.6 7 -13.9 52 52 WNW 7 11 30.37 1028 10 16.0934 0 0
4:52 am 04:52 Mostly Cloudy 21 -6.1 7 -13.9 54 54 NW 8 13 30.38 1029 10 16.0934 0 0
5:52 am 05:52 Mostly Cloudy 22 -5.6 6 -14.4 50 50 NW 10 17 30.4 1029 10 16.0934 0 0
6:52 am 06:52 Mostly Cloudy 21 -6.1 6 -14.4 52 52 N 8 13 30.37 1029 10 16.0934 0 0
7:52 am 07:52 Mostly Cloudy 23 -5 6 -14.4 48 48 W 5 7 30.38 1029 10 16.0934 0 0
8:52 am 08:52 Mostly Cloudy 25 -3.9 6 -14.4 44 44 VRB 6 9 30.4 1030 10 16.0934 0 0
9:52 am 09:52 Mostly Cloudy 26 -3.3 8 -13.3 46 46 E 5 7 30.38 1029 10 16.0934 0 0
10:52 am 10:52 Mostly Cloudy 29 -1.7 8 -13.3 41 41 S 9 15 30.36 1028 10 16.0934 0 0
11:52 am 11:52 Mostly Cloudy 31 -0.6 10 -12.2 42 42 S 12 19 30.33 1027 10 16.0934 0 0
12:52 pm 12:52 Mostly Cloudy 33 0.6 8 -13.3 35 35 S 13 20 30.26 1025 10 16.0934 0 0
1:52 pm 13:52 Mostly Cloudy 35 1.7 11 -11.7 37 37 S 9 15 30.21 1023 10 16.0934 0 0
2:52 pm 14:52 Cloudy 35 1.7 11 -11.7 37 37 S 13 20 30.19 1022 10 16.0934 0 0
3:52 pm 15:52 Mostly Cloudy 36 2.2 12 -11.1 37 37 S 13 20 30.15 1021 10 16.0934 0 0
4:52 pm 16:52 Sunny 36 2.2 14 -10 40 40 S 13 20 30.13 1020 10 16.0934 0 0
5:52 pm 17:52 Mostly Cloudy 36 2.2 15 -9.4 42 42 S 14 22 30.11 1020 10 16.0934 0 0
6:52 pm 18:52 Cloudy 36 2.2 16 -8.9 44 44 S 12 19 30.12 1020 10 16.0934 0 0
7:52 pm 19:52 Cloudy 36 2.2 18 -7.8 48 48 S 14 22 30.09 1019 10 16.0934 0 0
8:52 pm 20:52 Cloudy 38 3.3 16 -8.9 41 41 S 17 28 30.07 1018 10 16.0934 0 0
9:52 pm 21:52 Cloudy 38 3.3 17 -8.3 43 43 S 15 24 30.06 1018 10 16.0934 0 0
10:52 pm 22:52 Cloudy 39 3.9 19 -7.2 45 45 S 15 24 30.03 1017 10 16.0934 0 0
11:52 pm 23:52 Mostly Cloudy 40 4.4 19 -7.2 43 43 SSW 14 22 30.03 1017 10 16.0934 0 0

Powered by AerisWeather